Flag for Angola Weather past 2 weeks in Luanda, Angola

Now
84 °F

Scattered clouds.


Feels Like: 87 °F
Forecast: 74 / 81 °F
Wind: 12 mph from West

Location: Luanda Airport

Current Time: Oct 22, 2014 at 11:39:01 AM

Latest Report: Oct 22, 2014 at 11:00 AM


Visibility: N/A

Pressure: 29.95 "Hg

Humidity: 58%

Dew point: 68 °F

Location of LuandaLocation

Historic Weather in Luanda — Graph

°F

Luanda temperature yesterday

Maximum temperature yesterday: 84 °F (at 1:00 PM)
Minimum temperature yesterday: 73 °F (at 12:00 AM)
Average temperature yesterday: 77 °F

Past Weeks' High & Low Weather Summary

 TemperatureHumidityPressure
High84 °F (Oct 19, 1:00 PM)94% (Oct 11, 6:00 AM)30.07 "Hg (Oct 11, 6:00 AM)
Low64 °F (Oct 8, 6:00 AM)58% (Oct 19, 1:00 PM)29.80 "Hg (Oct 9, 4:00 PM)
Average76 °F78%29.92 "Hg
* Reported Oct 7 10:00 AM — Oct 22 10:00 AM, Luanda, Weather by CustomWeather, © 2014

Note: Actual official high and low records may vary slightly from our data, if they occured in-between our weather recording intervals... More about our weather records

Advertising

Luanda weather history for previous 24 hours

 ConditionsComfort  
Time TempWeatherWind HumidityBarometerVisibility
10:00 AM
Oct 22
84 °FScattered clouds.5 mph58%29.98 "HgN/A
9:01 AM81 °FBroken clouds.6 mph66%29.98 "HgN/A
9:00 AM81 °FBroken clouds.6 mph70%29.98 "HgN/A
8:00 AM79 °FBroken clouds.6 mph74%29.98 "HgN/A
7:00 AM75 °FPartly sunny.7 mph83%29.98 "HgN/A
6:00 AM75 °FBroken clouds.8 mph83%29.95 "HgN/A
5:00 AM75 °FPassing clouds.7 mph83%29.92 "HgN/A
4:00 AM75 °FPassing clouds.7 mph83%29.92 "HgN/A
3:00 AM75 °FPassing clouds.8 mph83%29.89 "HgN/A
2:00 AM75 °FPassing clouds.9 mph83%29.89 "HgN/A
1:00 AM75 °FPassing clouds.5 mph83%29.98 "HgN/A
12:00 AM75 °FPassing clouds.10 mph83%30.01 "HgN/A
11:00 PM
Oct 21
75 °FPassing clouds.8 mph83%29.98 "HgN/A
10:00 PM75 °FPassing clouds.12 mph83%29.95 "HgN/A
9:00 PM75 °FPassing clouds.9 mph83%29.95 "HgN/A
8:00 PM75 °FPassing clouds.9 mph83%29.92 "HgN/A
7:00 PM77 °FPassing clouds.8 mph79%29.89 "HgN/A
6:00 PM77 °FScattered clouds.9 mph79%29.86 "HgN/A
5:00 PM81 °FScattered clouds.12 mph70%29.83 "HgN/A
4:00 PM82 °FPassing clouds.12 mph66%29.83 "HgN/A
3:00 PM84 °FPassing clouds.13 mph62%29.86 "HgN/A
2:00 PM84 °FPassing clouds.13 mph62%29.89 "HgN/A
1:00 PM84 °FScattered clouds.9 mph62%29.92 "HgN/A
12:00 PM82 °FPartly sunny.9 mph66%29.95 "HgN/A
11:00 AM81 °FPartly sunny.7 mph70%29.95 "HgN/A
Weather by CustomWeather, © 2014

See weather overviewHow to use our weather pages